PP5FMM-13 Weather Reports


time (UTC)temp
C
wind
direction
speed
KPH
gust
KPH
rain 1hr
cm
rain 24hr
cm
rain mn
cm
humidity
%
barometer
mb
20260905003831 23 0.0 0.0 0.00 0.00 0.00 87 1016.8
20260905003331 23 0.0 0.0 0.00 0.00 0.00 88 1016.5
20260905002831 23 0.0 0.0 0.00 0.00 0.00 87 1016.7
20260905002331 23 0.0 0.0 0.00 0.00 0.00 88 1016.6
20260905001831 23 0.0 0.0 0.00 0.00 0.00 88 1016.5
20260905001331 23 0.0 0.0 0.00 0.00 0.00 87 1016.4
20260905000831 23 0.0 0.0 0.00 0.00 0.00 88 1016.2
20260905000332 23 0.0 0.0 0.00 0.00 0.00 89 1016.1
20260904235831 23 0.0 0.0 0.00 0.00 0.00 89 1016.2
20260904235331 23 0.0 0.0 0.00 0.00 0.00 89 1016.1
20260904234831 23 0.0 0.0 0.00 0.00 0.00 90 1016.1
20260904234331 23 0.0 0.0 0.00 0.00 0.00 89 1016.2
20260904233831 23 0.0 0.0 0.00 0.00 0.00 89 1016.2
20260904233331 23 0.0 0.0 0.00 0.00 0.00 88 1016.4
20260904232831 23 0.0 0.0 0.00 0.00 0.00 88 1016.3
20260904232331 23 0.0 0.0 0.00 0.00 0.00 88 1016.3
20260904231831 24 0.0 0.0 0.00 0.00 0.00 88 1016.2
20260904231331 24 0.0 0.0 0.00 0.00 0.00 88 1016.2
20260904230831 24 0.0 0.0 0.00 0.00 0.00 89 1016.4
20260904230330 24 0.0 0.0 0.00 0.00 0.00 89 1016.4
20260904225831 24 0.0 0.0 0.00 0.00 0.00 87 1016.3
20260904225330 23 0.0 0.0 0.00 0.00 0.00 87 1016.1
20260904224830 24 0.0 0.0 0.00 0.00 0.00 86 1016.1
20260904224330 24 0.0 0.0 0.00 0.00 0.00 85 1016.0
20260904223831 24 0.0 0.0 0.00 0.00 0.00 85 1015.9
20260904223330 23 0.0 0.0 0.00 0.00 0.00 85 1015.7
20260904222831 24 0.0 0.0 0.00 0.00 0.00 84 1015.6
20260904222331 24 0.0 0.0 0.00 0.00 0.00 83 1015.6
20260904221830 24 0.0 0.0 0.00 0.00 0.00 84 1015.7
20260904221330 23 0.0 0.0 0.00 0.00 0.00 84 1015.8
20260904220831 23 0.0 0.0 0.00 0.00 0.00 83 1015.5
20260904220330 23 0.0 0.0 0.00 0.00 0.00 82 1015.4
20260904215831 23 0.0 0.0 0.00 0.00 0.00 81 1015.5
20260904215331 23 0.0 0.0 0.00 0.00 0.00 82 1015.5
20260904214831 23 0.0 0.0 0.00 0.00 0.00 83 1015.8
20260904214331 23 0.0 0.0 0.00 0.00 0.00 81 1015.5
20260904213831 23 0.0 0.0 0.00 0.00 0.00 80 1015.5
20260904213331 23 0.0 0.0 0.00 0.00 0.00 80 1015.4
20260904212831 23 0.0 0.0 0.00 0.00 0.00 80 1015.4
20260904212330 23 0.0 0.0 0.00 0.00 0.00 80 1015.6
20260904211831 23 0.0 0.0 0.00 0.00 0.00 75 1015.3
20260904211331 23 0.0 0.0 0.00 0.00 0.00 73 1015.4
20260904210831 23 0.0 0.0 0.00 0.00 0.00 78 1015.5
20260904210330 23 0.0 0.0 0.00 0.00 0.00 77 1015.4
20260904205831 23 0.0 0.0 0.00 0.00 0.00 78 1015.3
20260904205330 23 0.0 0.0 0.00 0.00 0.00 75 1015.1
20260904204831 23 0.0 0.0 0.00 0.00 0.00 74 1015.2
20260904204331 23 0.0 0.0 0.00 0.00 0.00 78 1015.0
20260904203831 23 0.0 0.0 0.00 0.00 0.00 72 1014.9
20260904203331 23 0.0 0.0 0.00 0.00 0.00 74 1015.2
20260904202831 23 0.0 0.0 0.00 0.00 0.00 73 1015.3
20260904202330 23 0.0 0.0 0.00 0.00 0.00 74 1015.2
20260904201831 23 0.0 0.0 0.00 0.00 0.00 69 1015.4
20260904201330 23 0.0 0.0 0.00 0.00 0.00 70 1015.2
20260904200831 23 0.0 0.0 0.00 0.00 0.00 72 1015.1
20260904200330 23 0.0 0.0 0.00 0.00 0.00 70 1015.2
20260904195831 23 0.0 0.0 0.00 0.00 0.00 74 1015.5
20260904195331 23 0.0 0.0 0.00 0.00 0.00 70 1015.3
20260904194831 23 0.0 0.0 0.00 0.00 0.00 74 1015.2
20260904194330 23 0.0 0.0 0.00 0.00 0.00 73 1015.2
20260904193830 23 0.0 0.0 0.00 0.00 0.00 73 1015.1
20260904193331 23 0.0 0.0 0.00 0.00 0.00 74 1014.9
20260904192830 23 0.0 0.0 0.00 0.00 0.00 71 1014.8
20260904192330 22 0.0 0.0 0.00 0.00 0.00 70 1014.7
20260904191830 23 0.0 0.0 0.00 0.00 0.00 75 1014.5
20260904191331 23 0.0 0.0 0.00 0.00 0.00 74 1014.4
20260904190831 23 0.0 0.0 0.00 0.00 0.00 70 1014.3
20260904190330 23 0.0 0.0 0.00 0.00 0.00 64 1014.2
20260904185830 23 0.0 0.0 0.00 0.00 0.00 68 1014.1
20260904185331 22 0.0 0.0 0.00 0.00 0.00 71 1013.9
20260904184831 22 0.0 0.0 0.00 0.00 0.00 71 1013.8
20260904184331 22 0.0 0.0 0.00 0.00 0.00 69 1013.7
20260904183830 21 0.0 0.0 0.00 0.00 0.00 67 1013.6
20260904183330 21 0.0 0.0 0.00 0.00 0.00 71 1013.6
20260904182831 21 0.0 0.0 0.00 0.00 0.00 69 1013.4
20260904182330 21 0.0 0.0 0.00 0.00 0.00 68 1013.6
20260904181830 22 0.0 0.0 0.00 0.00 0.00 68 1013.6
20260904181330 22 0.0 0.0 0.00 0.00 0.00 67 1013.5
20260904180831 22 0.0 0.0 0.00 0.00 0.00 67 1013.5
20260904180331 22 0.0 0.0 0.00 0.00 0.00 66 1013.6
20260904175831 22 0.0 0.0 0.00 0.00 0.00 65 1013.6
20260904175330 22 0.0 0.0 0.00 0.00 0.00 65 1013.7
20260904174831 22 0.0 0.0 0.00 0.00 0.00 64 1013.9
20260904174330 22 0.0 0.0 0.00 0.00 0.00 69 1014.0
20260904173830 22 0.0 0.0 0.00 0.00 0.00 71 1014.0
20260904173330 22 0.0 0.0 0.00 0.00 0.00 70 1013.8
20260904172830 22 0.0 0.0 0.00 0.00 0.00 71 1013.6
20260904172331 23 0.0 0.0 0.00 0.00 0.00 68 1013.5
20260904171830 23 0.0 0.0 0.00 0.00 0.00 67 1013.7
20260904171331 23 0.0 0.0 0.00 0.00 0.00 65 1013.7
20260904170830 23 0.0 0.0 0.00 0.00 0.00 65 1013.6
20260904170330 23 0.0 0.0 0.00 0.00 0.00 67 1013.4
20260904165831 23 0.0 0.0 0.00 0.00 0.00 66 1013.5
20260904165331 23 0.0 0.0 0.00 0.00 0.00 67 1013.4
20260904164830 23 0.0 0.0 0.00 0.00 0.00 63 1013.5
20260904164330 23 0.0 0.0 0.00 0.00 0.00 64 1013.7
20260904163830 23 0.0 0.0 0.00 0.00 0.00 68 1013.7
20260904163331 24 0.0 0.0 0.00 0.00 0.00 70 1013.8
20260904162831 24 0.0 0.0 0.00 0.00 0.00 67 1013.8
20260904162330 25 0.0 0.0 0.00 0.00 0.00 70 1013.7
20260904161830 25 0.0 0.0 0.00 0.00 0.00 69 1013.6
20260904161330 25 0.0 0.0 0.00 0.00 0.00 69 1013.8
20260904160830 26 0.0 0.0 0.00 0.00 0.00 63 1013.8
20260904160331 26 0.0 0.0 0.00 0.00 0.00 64 1013.8
20260904155831 26 0.0 0.0 0.00 0.00 0.00 62 1013.9
20260904155330 26 0.0 0.0 0.00 0.00 0.00 61 1014.1
20260904154830 26 0.0 0.0 0.00 0.00 0.00 59 1013.9
20260904154331 26 0.0 0.0 0.00 0.00 0.00 57 1014.1
20260904153830 26 0.0 0.0 0.00 0.00 0.00 58 1014.1
20260904153330 26 0.0 0.0 0.00 0.00 0.00 58 1014.3
20260904152830 26 0.0 0.0 0.00 0.00 0.00 57 1014.2
20260904152331 26 0.0 0.0 0.00 0.00 0.00 57 1014.4
20260904151830 26 0.0 0.0 0.00 0.00 0.00 59 1014.1
20260904151330 26 0.0 0.0 0.00 0.00 0.00 59 1013.8
20260904150830 26 0.0 0.0 0.00 0.00 0.00 60 1013.7
20260904150331 26 0.0 0.0 0.00 0.00 0.00 59 1013.7
20260904145830 26 0.0 0.0 0.00 0.00 0.00 58 1014.0
20260904145331 26 0.0 0.0 0.00 0.00 0.00 62 1014.4
20260904144830 26 0.0 0.0 0.00 0.00 0.00 59 1014.4
20260904144343 26 0.0 0.0 0.00 0.00 0.00 61 1014.6
20260904143830 26 0.0 0.0 0.00 0.00 0.00 61 1014.6
20260904143331 26 0.0 0.0 0.00 0.00 0.00 59 1014.6
20260904142830 26 0.0 0.0 0.00 0.00 0.00 58 1014.5
20260904142330 26 0.0 0.0 0.00 0.00 0.00 58 1014.6
20260904141830 26 0.0 0.0 0.00 0.00 0.00 57 1014.6
20260904141330 26 0.0 0.0 0.00 0.00 0.00 58 1014.5
20260904140831 27 0.0 0.0 0.00 0.00 0.00 59 1014.6
20260904140330 27 0.0 0.0 0.00 0.00 0.00 59 1014.7
20260904135830 26 0.0 0.0 0.00 0.00 0.00 59 1014.9
20260904135330 27 0.0 0.0 0.00 0.00 0.00 59 1014.9
20260904134831 26 0.0 0.0 0.00 0.00 0.00 60 1015.1
20260904134330 26 0.0 0.0 0.00 0.00 0.00 61 1015.1
20260904133830 26 0.0 0.0 0.00 0.00 0.00 59 1015.3
20260904133330 26 0.0 0.0 0.00 0.00 0.00 60 1015.4
20260904132830 27 0.0 0.0 0.00 0.00 0.00 59 1015.2
20260904132331 27 0.0 0.0 0.00 0.00 0.00 59 1015.1
20260904131830 27 0.0 0.0 0.00 0.00 0.00 59 1015.0
20260904131330 27 0.0 0.0 0.00 0.00 0.00 59 1015.1
20260904130830 27 0.0 0.0 0.00 0.00 0.00 60 1015.2
20260904130331 28 0.0 0.0 0.00 0.00 0.00 63 1015.4
20260904125830 28 0.0 0.0 0.00 0.00 0.00 63 1015.3
20260904125330 28 0.0 0.0 0.00 0.00 0.00 61 1015.3
20260904124830 28 0.0 0.0 0.00 0.00 0.00 64 1015.4
20260904124330 28 0.0 0.0 0.00 0.00 0.00 67 1015.2
20260904123831 28 0.0 0.0 0.00 0.00 0.00 68 1015.2
20260904123330 28 0.0 0.0 0.00 0.00 0.00 71 1015.3
20260904122830 27 0.0 0.0 0.00 0.00 0.00 71 1015.4
20260904122330 28 0.0 0.0 0.00 0.00 0.00 70 1015.7
20260904121830 27 0.0 0.0 0.00 0.00 0.00 71 1015.5
20260904121330 27 0.0 0.0 0.00 0.00 0.00 71 1015.3
20260904120830 27 0.0 0.0 0.00 0.00 0.00 70 1015.4
20260904120331 27 0.0 0.0 0.00 0.00 0.00 72 1015.2
20260904115831 27 0.0 0.0 0.00 0.00 0.00 72 1015.4
20260904115330 27 0.0 0.0 0.00 0.00 0.00 71 1015.2
20260904114830 27 0.0 0.0 0.00 0.00 0.00 74 1015.0
20260904114330 27 0.0 0.0 0.00 0.00 0.00 76 1014.9
20260904113830 27 0.0 0.0 0.00 0.00 0.00 78 1015.0
20260904113330 26 0.0 0.0 0.00 0.00 0.00 76 1014.9
20260904112830 26 0.0 0.0 0.00 0.00 0.00 82 1014.8
20260904112331 25 0.0 0.0 0.00 0.00 0.00 84 1014.8
20260904111830 25 0.0 0.0 0.00 0.00 0.00 80 1014.7
20260904111330 25 0.0 0.0 0.00 0.00 0.00 88 1014.6
20260904110830 24 0.0 0.0 0.00 0.00 0.00 83 1014.5
20260904110331 25 0.0 0.0 0.00 0.00 0.00 87 1014.4
20260904105830 25 0.0 0.0 0.00 0.00 0.00 86 1014.5
20260904105331 24 0.0 0.0 0.00 0.00 0.00 86 1014.5
20260904104830 23 0.0 0.0 0.00 0.00 0.00 85 1014.4
20260904104330 24 0.0 0.0 0.00 0.00 0.00 95 1014.5
20260904103833 23 0.0 0.0 0.00 0.00 0.00 96 1014.4
20260904103330 23 0.0 0.0 0.00 0.00 0.00 91 1014.4
20260904102830 23 0.0 0.0 0.00 0.00 0.00 97 1014.3
20260904102330 23 0.0 0.0 0.00 0.00 0.00 98 1014.2
20260904101830 23 0.0 0.0 0.00 0.00 0.00 98 1014.2
20260904101330 23 0.0 0.0 0.00 0.00 0.00 98 1014.2
20260904100830 23 0.0 0.0 0.00 0.00 0.00 97 1014.1
20260904100330 23 0.0 0.0 0.00 0.00 0.00 98 1014.1
20260904095830 23 0.0 0.0 0.00 0.00 0.00 98 1014.2
20260904095330 23 0.0 0.0 0.00 0.00 0.00 99 1014.1
20260904094830 23 0.0 0.0 0.00 0.00 0.00 10 1014.0
20260904094330 23 0.0 0.0 0.00 0.00 0.00 10 1014.0
20260904093830 23 0.0 0.0 0.00 0.00 0.00 10 1013.8
20260904093330 23 0.0 0.0 0.00 0.00 0.00 10 1013.7
20260904092830 23 0.0 0.0 0.00 0.00 0.00 10 1013.6
20260904092330 23 0.0 0.0 0.00 0.00 0.00 10 1013.6
20260904091830 23 0.0 0.0 0.00 0.00 0.00 10 1013.5
20260904091330 23 0.0 0.0 0.00 0.00 0.00 10 1013.3
20260904090830 23 0.0 0.0 0.00 0.00 0.00 99 1013.5
20260904090330 23 0.0 0.0 0.00 0.00 0.00 99 1013.4
20260904085830 23 0.0 0.0 0.00 0.00 0.00 99 1013.3
20260904085330 23 0.0 0.0 0.00 0.00 0.00 99 1013.1
20260904084830 23 0.0 0.0 0.00 0.00 0.00 99 1013.1
20260904084330 23 0.0 0.0 0.00 0.00 0.00 99 1013.1
20260904083830 23 0.0 0.0 0.00 0.00 0.00 99 1013.1
20260904083330 23 0.0 0.0 0.00 0.00 0.00 99 1013.0
20260904082830 23 0.0 0.0 0.00 0.00 0.00 99 1013.0
20260904082330 23 0.0 0.0 0.00 0.00 0.00 99 1012.9
20260904081830 23 0.0 0.0 0.00 0.00 0.00 99 1012.8
20260904081330 23 0.0 0.0 0.00 0.00 0.00 99 1012.7
20260904080830 23 0.0 0.0 0.00 0.00 0.00 10 1012.5
20260904080330 23 0.0 0.0 0.00 0.00 0.00 99 1012.5
20260904075830 23 0.0 0.0 0.00 0.00 0.00 99 1012.5
20260904075330 23 0.0 0.0 0.00 0.00 0.00 99 1012.3
20260904074830 23 0.0 0.0 0.00 0.00 0.00 99 1012.2
20260904074330 23 0.0 0.0 0.00 0.00 0.00 99 1012.0
20260904073830 23 0.0 0.0 0.00 0.00 0.00 10 1012.0
20260904073330 23 0.0 0.0 0.00 0.00 0.00 99 1012.0
20260904072830 23 0.0 0.0 0.00 0.00 0.00 99 1011.6
20260904072330 24 0.0 0.0 0.00 0.00 0.00 98 1011.6
20260904071830 23 0.0 0.0 0.00 0.00 0.00 99 1011.8
20260904071330 23 0.0 0.0 0.00 0.00 0.00 99 1011.8
20260904070830 23 0.0 0.0 0.00 0.00 0.00 10 1011.8
20260904070330 23 0.0 0.0 0.00 0.00 0.00 10 1011.9
20260904065830 23 0.0 0.0 0.00 0.00 0.00 99 1011.8
20260904065330 23 0.0 0.0 0.00 0.00 0.00 10 1011.8
20260904064830 23 0.0 0.0 0.00 0.00 0.00 98 1011.9
20260904064330 24 0.0 0.0 0.00 0.00 0.00 99 1011.8
20260904063830 24 0.0 0.0 0.00 0.00 0.00 98 1011.8
20260904063330 24 0.0 0.0 0.00 0.00 0.00 99 1011.7
20260904062830 24 0.0 0.0 0.00 0.00 0.00 98 1011.8
20260904062330 24 0.0 0.0 0.00 0.00 0.00 99 1011.7
20260904061830 24 0.0 0.0 0.00 0.00 0.00 99 1011.6
20260904061330 24 0.0 0.0 0.00 0.00 0.00 99 1011.5
20260904060830 24 0.0 0.0 0.00 0.00 0.00 99 1011.6
20260904060330 24 0.0 0.0 0.00 0.00 0.00 99 1011.5
20260904055830 23 0.0 0.0 0.00 0.00 0.00 97 1011.5
20260904055330 24 0.0 0.0 0.00 0.00 0.00 98 1011.4
20260904054830 24 0.0 0.0 0.00 0.00 0.00 98 1011.4
20260904054330 24 0.0 0.0 0.00 0.00 0.00 98 1011.4
20260904053830 24 0.0 0.0 0.00 0.00 0.00 99 1011.5
20260904053330 24 0.0 0.0 0.00 0.00 0.00 99 1011.7
20260904052830 23 0.0 0.0 0.00 0.00 0.00 98 1011.7
20260904052330 24 0.0 0.0 0.00 0.00 0.00 98 1011.7
20260904051830 24 0.0 0.0 0.00 0.00 0.00 98 1011.7
20260904051330 24 0.0 0.0 0.00 0.00 0.00 99 1011.9
20260904050830 24 0.0 0.0 0.00 0.00 0.00 99 1011.5
20260904050330 24 0.0 0.0 0.00 0.00 0.00 99 1011.4
20260904045830 24 0.0 0.0 0.00 0.00 0.00 98 1011.3
20260904045330 24 0.0 0.0 0.00 0.00 0.00 98 1011.4
20260904044830 24 0.0 0.0 0.00 0.00 0.00 97 1011.4
20260904044330 24 0.0 0.0 0.00 0.00 0.00 97 1011.5
20260904043830 24 0.0 0.0 0.00 0.00 0.00 96 1011.6
20260904043330 25 0.0 0.0 0.00 0.00 0.00 96 1011.6
20260904042830 25 0.0 0.0 0.00 0.00 0.00 95 1011.6
20260904042330 24 0.0 0.0 0.00 0.00 0.00 96 1011.7
20260904041830 24 0.0 0.0 0.00 0.00 0.00 96 1011.8
20260904041330 25 0.0 0.0 0.00 0.00 0.00 95 1011.6
20260904040830 25 0.0 0.0 0.00 0.00 0.00 95 1011.5
20260904040330 25 0.0 0.0 0.00 0.00 0.00 95 1011.6
20260904035830 25 0.0 0.0 0.00 0.00 0.00 95 1011.7
20260904034830 24 0.0 0.0 0.00 0.00 0.00 96 1011.8
20260904034330 25 0.0 0.0 0.00 0.00 0.00 95 1011.7
20260904033830 25 0.0 0.0 0.00 0.00 0.00 95 1011.6
20260904033330 25 0.0 0.0 0.00 0.00 0.00 95 1011.6
20260904032330 25 0.0 0.0 0.00 0.00 0.00 94 1011.7
20260904031830 25 0.0 0.0 0.00 0.00 0.00 94 1011.7
20260904031330 25 0.0 0.0 0.00 0.00 0.00 94 1011.7
20260904030830 25 0.0 0.0 0.00 0.00 0.00 93 1011.8
20260904030330 25 0.0 0.0 0.00 0.00 0.00 93 1012.0
20260904025830 25 0.0 0.0 0.00 0.00 0.00 93 1012.0
20260904025330 25 0.0 0.0 0.00 0.00 0.00 93 1012.0
20260904024830 25 0.0 0.0 0.00 0.00 0.00 92 1012.0
20260904024330 25 0.0 0.0 0.00 0.00 0.00 93 1012.0
20260904023830 25 0.0 0.0 0.00 0.00 0.00 93 1012.0
20260904023330 25 0.0 0.0 0.00 0.00 0.00 93 1012.1
20260904022830 25 0.0 0.0 0.00 0.00 0.00 93 1012.1
20260904022330 25 0.0 0.0 0.00 0.00 0.00 93 1012.2
20260904021830 25 0.0 0.0 0.00 0.00 0.00 93 1012.1
20260904021330 25 0.0 0.0 0.00 0.00 0.00 92 1012.0
20260904020830 25 0.0 0.0 0.00 0.00 0.00 92 1012.0
20260904020330 25 0.0 0.0 0.00 0.00 0.00 92 1012.0
20260904015830 25 0.0 0.0 0.00 0.00 0.00 91 1012.0
20260904015330 25 0.0 0.0 0.00 0.00 0.00 91 1012.0
20260904014830 25 0.0 0.0 0.00 0.00 0.00 91 1012.1
20260904014330 25 0.0 0.0 0.00 0.00 0.00 91 1012.3
20260904013830 25 0.0 0.0 0.00 0.00 0.00 90 1012.2
20260904013330 25 0.0 0.0 0.00 0.00 0.00 90 1012.4
20260904012830 25 0.0 0.0 0.00 0.00 0.00 91 1012.4
20260904012330 25 0.0 0.0 0.00 0.00 0.00 90 1012.5
20260904011829 25 0.0 0.0 0.00 0.00 0.00 90 1012.5
20260904011330 25 0.0 0.0 0.00 0.00 0.00 90 1012.5
20260904010830 25 0.0 0.0 0.00 0.00 0.00 90 1012.6
20260904010330 25 0.0 0.0 0.00 0.00 0.00 90 1012.4
20260904005830 25 0.0 0.0 0.00 0.00 0.00 90 1012.6
20260904005330 25 0.0 0.0 0.00 0.00 0.00 89 1012.5
20260904004830 25 0.0 0.0 0.00 0.00 0.00 90 1012.8
20260904004330 25 0.0 0.0 0.00 0.00 0.00 89 1012.7